Location: Narrabri
(30.3170°S, 149.7830°E)
Time: 16:23:07
(UTC+11:00)

Envisat - Pass Details

Date: 16 October 2017
Orbit: 764 x 766 km, 98.2° (Epoch: 19 October)

Event Time Altitude Azimuth Distance (km) Brightness Sun altitude
Rises 21:55:21 0° 176° (S) 3,263 6.6 -33.1°
Reaches altitude 10° 21:57:44 10° 181° (S) 2,330 5.9 -33.5°
Enters shadow 22:00:57 35° 204° (SSW) 1,239 4.4 -34.1°
